TimeEST,TemperatureF,Dew PointF,Humidity,Sea Level PressureIn,VisibilityMPH,Wind Direction,Wind SpeedMPH,Gust SpeedMPH,PrecipitationIn,Events,Conditions,WindDirDegrees,DateUTC
12:15 AM,33.3,-9999,N/A,29.63,4.0,WSW,5.8,-,N/A,Rain,Light Rain,250,2013-12-15 05:15:00
12:35 AM,32.9,-9999,N/A,29.63,3.0,West,5.8,-,0.02,Snow,Light Snow,270,2013-12-15 05:35:00
12:54 AM,32.4,-9999,N/A,29.63,2.0,West,9.2,-,0.03,Snow,Light Snow,270,2013-12-15 05:54:00
1:15 AM,32.2,-9999,N/A,29.63,3.0,West,10.4,-,N/A,Snow,Light Snow,270,2013-12-15 06:15:00
1:35 AM,32.0,-9999,N/A,29.63,5.0,West,16.1,-,N/A,Snow,Light Snow,280,2013-12-15 06:35:00
1:55 AM,32.0,-9999,N/A,29.65,1.8,West,13.8,-,N/A,,Overcast,280,2013-12-15 06:55:00
2:15 AM,32.0,-9999,N/A,29.66,1.5,West,11.5,18.4,N/A,,Overcast,280,2013-12-15 07:15:00
2:35 AM,32.0,-9999,N/A,29.67,5.0,WNW,12.7,21.9,N/A,,Haze,300,2013-12-15 07:35:00
2:54 AM,30.9,-9999,N/A,29.68,10.0,WNW,16.1,21.9,N/A,,Overcast,290,2013-12-15 07:54:00
3:15 AM,30.2,-9999,N/A,29.70,7.0,WNW,18.4,24.2,N/A,,Overcast,290,2013-12-15 08:15:00
3:35 AM,28.4,-9999,N/A,29.71,5.0,NW,13.8,21.9,N/A,,Haze,310,2013-12-15 08:35:00
3:54 AM,27.5,27.5,100,29.72,5.0,WNW,11.5,20.7,N/A,,Overcast,290,2013-12-15 08:54:00
4:15 AM,26.6,26.6,100,29.72,5.0,West,16.1,23.0,N/A,,Overcast,280,2013-12-15 09:15:00
4:34 AM,26.4,26.4,100,29.74,5.0,WNW,12.7,-,N/A,Snow,Light Snow,290,2013-12-15 09:34:00
4:55 AM,25.5,25.5,100,29.75,5.0,West,21.9,26.5,N/A,,Overcast,280,2013-12-15 09:55:00
5:15 AM,24.8,24.8,100,29.76,5.0,WNW,16.1,24.2,N/A,,Overcast,290,2013-12-15 10:15:00
5:35 AM,24.6,24.8,100,29.77,4.0,WNW,17.3,21.9,N/A,,Overcast,290,2013-12-15 10:35:00
5:54 AM,24.6,24.8,100,29.77,5.0,West,18.4,-,N/A,,Overcast,280,2013-12-15 10:54:00
6:15 AM,24.4,24.6,100,29.78,5.0,West,12.7,-,N/A,,Overcast,280,2013-12-15 11:15:00
6:34 AM,23.9,23.9,100,29.79,4.0,West,15.0,19.6,N/A,,Overcast,280,2013-12-15 11:34:00
6:55 AM,23.5,23.5,100,29.80,4.0,West,17.3,20.7,N/A,,Overcast,270,2013-12-15 11:55:00
7:15 AM,22.8,23.0,100,29.80,7.0,West,16.1,21.9,N/A,,Overcast,270,2013-12-15 12:15:00
7:35 AM,22.3,22.6,100,29.81,10.0,West,13.8,19.6,N/A,,Overcast,270,2013-12-15 12:35:00
7:54 AM,22.5,22.6,100,29.81,10.0,West,9.2,-,N/A,,Overcast,260,2013-12-15 12:54:00
8:15 AM,22.1,22.5,100,29.81,7.0,West,12.7,-,N/A,,Overcast,260,2013-12-15 13:15:00
8:35 AM,22.1,22.5,100,29.82,5.0,WSW,10.4,-,N/A,,Overcast,250,2013-12-15 13:35:00
8:55 AM,22.1,22.1,100,29.83,5.0,West,10.4,16.1,N/A,,Overcast,260,2013-12-15 13:55:00
9:15 AM,22.1,22.1,100,29.83,3.0,West,5.8,10.4,N/A,Snow,Light Snow,260,2013-12-15 14:15:00
9:34 AM,22.1,22.1,100,29.83,4.0,WSW,10.4,-,N/A,,Overcast,250,2013-12-15 14:34:00
9:54 AM,22.3,22.6,100,29.83,4.0,WSW,5.8,-,N/A,Snow,Light Snow,240,2013-12-15 14:54:00
10:15 AM,22.8,23.0,100,29.83,3.0,WSW,8.1,-,N/A,Snow,Light Snow,240,2013-12-15 15:15:00
10:35 AM,23.0,23.0,100,29.84,5.0,WSW,11.5,18.4,N/A,Snow,Light Snow,250,2013-12-15 15:35:00
10:54 AM,23.4,23.2,99,29.84,2.5,West,9.2,-,N/A,Snow,Light Snow,260,2013-12-15 15:54:00
11:15 AM,23.9,23.4,98,29.84,2.0,WSW,10.4,16.1,N/A,Snow,Light Snow,250,2013-12-15 16:15:00
11:35 AM,24.6,23.5,96,29.83,4.0,WSW,16.1,20.7,N/A,Snow,Light Snow,250,2013-12-15 16:35:00
11:54 AM,25.2,23.4,93,29.82,7.0,WSW,10.4,20.7,N/A,Snow,Light Snow,250,2013-12-15 16:54:00
12:15 PM,24.8,23.4,94,29.81,7.0,WSW,11.5,18.4,N/A,Snow,Light Snow,240,2013-12-15 17:15:00
12:34 PM,25.2,23.7,94,29.80,4.0,WSW,9.2,17.3,N/A,Snow,Light Snow,250,2013-12-15 17:34:00
12:55 PM,25.5,23.5,92,29.80,5.0,WSW,10.4,18.4,N/A,Snow,Light Snow,250,2013-12-15 17:55:00
1:15 PM,25.7,23.5,92,29.79,5.0,WSW,10.4,-,N/A,Snow,Light Snow,250,2013-12-15 18:15:00
1:35 PM,25.7,24.8,96,29.79,2.5,West,9.2,-,N/A,Snow,Light Snow,260,2013-12-15 18:35:00
1:54 PM,25.3,22.8,90,29.80,2.0,WSW,15.0,23.0,N/A,Snow,Light Snow,250,2013-12-15 18:54:00
2:15 PM,24.8,21.0,86,29.80,2.5,WSW,15.0,25.3,N/A,Snow,Light Snow,250,2013-12-15 19:15:00
2:35 PM,24.3,18.5,79,29.80,4.0,WSW,18.4,26.5,N/A,Snow,Light Snow,250,2013-12-15 19:35:00
2:54 PM,23.7,17.1,76,29.80,5.0,WSW,16.1,24.2,N/A,Snow,Light Snow,250,2013-12-15 19:54:00
3:15 PM,23.0,15.6,73,29.81,7.0,WSW,20.7,28.8,N/A,,Overcast,250,2013-12-15 20:15:00
3:34 PM,22.6,15.3,73,29.82,10.0,WSW,11.5,23.0,N/A,,Overcast,250,2013-12-15 20:34:00
3:55 PM,22.5,15.1,73,29.83,10.0,West,11.5,27.6,N/A,,Overcast,260,2013-12-15 20:55:00
4:15 PM,22.1,14.7,73,29.85,10.0,WSW,20.7,27.6,N/A,,Overcast,250,2013-12-15 21:15:00
4:34 PM,21.6,14.4,74,29.86,10.0,West,15.0,27.6,N/A,,Overcast,260,2013-12-15 21:34:00
4:55 PM,20.8,14.2,75,29.86,10.0,WSW,13.8,24.2,N/A,,Overcast,250,2013-12-15 21:55:00
5:15 PM,20.3,14.0,77,29.87,10.0,West,15.0,24.2,N/A,Snow,Light Snow,260,2013-12-15 22:15:00
5:35 PM,19.8,13.8,78,29.88,10.0,WSW,13.8,20.7,N/A,Snow,Light Snow,250,2013-12-15 22:35:00
5:54 PM,19.4,13.5,78,29.89,10.0,WSW,18.4,26.5,N/A,Snow,Light Snow,250,2013-12-15 22:54:00
6:15 PM,18.5,12.4,77,29.90,10.0,WSW,16.1,24.2,N/A,,Overcast,250,2013-12-15 23:15:00
6:35 PM,18.1,12.2,78,29.92,10.0,WSW,11.5,16.1,N/A,,Overcast,250,2013-12-15 23:35:00
6:54 PM,17.6,11.3,76,29.92,10.0,West,17.3,24.2,N/A,,Overcast,270,2013-12-15 23:54:00
7:15 PM,17.4,11.5,78,29.93,10.0,West,13.8,18.4,N/A,,Overcast,260,2013-12-16 00:15:00
7:34 PM,16.9,10.8,77,29.94,10.0,West,15.0,21.9,N/A,,Overcast,260,2013-12-16 00:34:00
7:55 PM,16.7,10.9,78,29.94,10.0,WSW,16.1,19.6,N/A,,Overcast,250,2013-12-16 00:55:00
8:15 PM,16.7,10.9,78,29.95,10.0,WSW,12.7,18.4,N/A,,Overcast,250,2013-12-16 01:15:00
8:35 PM,16.3,10.2,77,29.95,10.0,WSW,13.8,20.7,N/A,,Overcast,250,2013-12-16 01:35:00
8:54 PM,15.8,10.2,79,29.96,10.0,West,15.0,20.7,N/A,,Mostly Cloudy,260,2013-12-16 01:54:00
9:15 PM,15.8,10.2,79,29.96,10.0,West,16.1,23.0,N/A,,Mostly Cloudy,260,2013-12-16 02:15:00
9:35 PM,15.6,10.2,79,29.97,10.0,WSW,15.0,24.2,N/A,,Overcast,250,2013-12-16 02:35:00
9:54 PM,15.3,9.7,79,29.97,10.0,West,13.8,21.9,N/A,,Mostly Cloudy,260,2013-12-16 02:54:00
10:15 PM,14.9,9.1,78,29.98,10.0,WSW,15.0,20.7,N/A,,Scattered Clouds,250,2013-12-16 03:15:00
10:34 PM,14.4,8.6,78,29.98,10.0,WSW,15.0,-,N/A,,Scattered Clouds,250,2013-12-16 03:34:00
10:55 PM,14.0,8.4,78,29.99,10.0,WSW,10.4,21.9,N/A,,Clear,250,2013-12-16 03:55:00
11:15 PM,14.0,8.4,78,30.00,10.0,West,12.7,18.4,N/A,,Clear,260,2013-12-16 04:15:00
11:34 PM,14.0,8.4,78,30.00,10.0,WSW,9.2,-,N/A,,Clear,250,2013-12-16 04:34:00
11:55 PM,13.8,8.6,80,30.00,10.0,WSW,11.5,16.1,N/A,,Scattered Clouds,250,2013-12-16 04:55:00